This demonstration page uses our WeatherBlox Daily Observations layout. Learn more.

41.55636, -103.73856

Hourly Observations for September 17, 2019

Temp ( °F °C ) Dew Point ( °F °C ) Humidity (%) Winds ( mph kmh ) Pressure ( in mb ) Visibility ( mi km ) Precip ( " mm )
12:58 am 00:58 Clear 62 16.4 50 9.8 65 65 SW 9 15 29.71 1006 10 16.09344 0 0
1:58 am 01:58 Clear 58 14.7 49 9.7 72 72 WSW 9 15 29.71 1006 10 16.09344 0 0
2:58 am 02:58 Clear 56 13.3 49 9.2 76 76 SW 5 7 29.71 1006 10 16.09344 0 0
3:58 am 03:58 Mostly Cloudy 56 13.3 47 8.2 71 71 WSW 5 7 29.71 1006 10 16.09344 0 0
4:58 am 04:58 Cloudy 57 13.8 46 7.5 66 66 WSW 9 15 29.71 1006 10 16.09344 0 0
5:58 am 05:58 Clear 53 11.8 46 7.5 75 75 W 6 9 29.74 1007 10 16.09344 0 0
6:58 am 06:58 Mostly Cloudy 54 12 47 8.6 80 80 WNW 5 7 29.77 1008 10 16.09344 0 0
7:58 am 07:58 Mostly Sunny 64 17.6 48 9 57 57 NW 6 9 29.74 1007 10 16.09344 0 0
8:58 am 08:58 Mostly Cloudy 69 20.4 51 10.5 53 53 NNW 6 9 29.74 1007 10 16.09344 0 0
9:58 am 09:58 Mostly Cloudy 74 23.2 49 9.3 41 41 N 7 11 29.74 1007 10 16.09344 0 0
10:58 am 10:58 Partly Cloudy 79 26.2 47 8.6 33 33 N 8 13 29.74 1007 10 16.09344 0 0
11:58 am 11:58 Partly Cloudy 80 26.6 46 7.7 30 30 NE 7 11 29.74 1007 10 16.09344 0 0
12:58 pm 12:58 Partly Cloudy 80 26.7 45 7.1 29 29 NNE 6 9 29.71 1006 10 16.09344 0 0
1:58 pm 13:58 Sunny 80 26.8 45 7.3 29 29 Calm 29.71 1006 10 16.09344 0 0
2:58 pm 14:58 Sunny 82 27.8 44 6.9 27 27 SW 8 13 29.71 1006 10 16.09344 0 0
3:58 pm 15:58 Sunny 82 27.8 45 7 27 27 S 10 17 29.68 1005 10 16.09344 0 0
4:58 pm 16:58 Sunny 82 27.5 43 5.9 25 25 S 14 22 29.68 1005 10 16.09344 0 0
5:58 pm 17:58 Mostly Cloudy 74 23.4 46 7.5 36 36 NNW 15 24 29.77 1008 10 16.09344 0 0
6:58 pm 18:58 Partly Cloudy 69 20.6 47 8.2 45 45 N 9 15 29.77 1008 10 16.09344 0 0
7:58 pm 19:58 Mostly Cloudy 63 17.4 47 8.3 55 55 N 6 9 29.8 1009 10 16.09344 0 0
8:58 pm 20:58 Partly Cloudy 67 19.3 47 8.6 50 50 NNW 12 19 29.8 1009 10 16.09344 0 0
9:58 pm 21:58 Mostly Clear 62 16.9 47 8.2 57 57 NNW 13 20 29.8 1009 10 16.09344 0 0
10:58 pm 22:58 Clear 60 15.6 44 6.8 56 56 NNW 12 19 29.83 1010 10 16.09344 0 0

Powered by AerisWeather